Regional Weather Roundup
Issued by NWS

Home | Current Version | Previous Version | Text Only | Print | Product List | Glossary Off
Versions: 1 2 3 4 5 6 7 8 9 10 11 12 13 14 15 16 17 18 19 20 21 22 23 24 25 26 27 28 29 30 31 32 33 34 35 36 37 38 39 40 41 42 43 44 45 46 47 48 49 50

000
ASUS43 KMKX 260100
RWRWI

WISCONSIN REGIONAL WEATHER ROUNDUP
NATIONAL WEATHER SERVICE MILWAUKEE/SULLIVAN WI
800 PM CDT TUE JUL 25 2017

NOTE: "FAIR" INDICATES FEW OR NO CLOUDS BELOW 12,000 FEET WITH NO
SIGNIFICANT WEATHER AND/OR OBSTRUCTIONS TO VISIBILITY.

WIZ001-002-006>008-014>016-023>028-260200-
NORTHWEST WISCONSIN

CITY           SKY/WX    TMP DP  RH WIND       PRES   REMARKS
SUPERIOR ARPT  NOT AVBL
ASHLAND        CLOUDY    73  65  75 S10       29.93S
HAYWARD        CLOUDY    73  64  73 S9G18     29.97R
SIREN          CLOUDY    76  67  74 S8        29.95R
CUMBERLAND     CLOUDY    72  64  78 S10       29.98R
RICE LAKE      CLOUDY    73  65  74 S13       29.99S
CHETEK         CLOUDY    73  67  79 S8        29.99S
LADYSMITH      CLOUDY    73  64  73 S9        30.02R
EAU CLAIRE     CLOUDY    74  68  81 S8        30.00R
MENOMONIE      CLOUDY    73  69  88 SE6       30.00S
NEW RICHMOND   CLOUDY    77  67  71 S15       29.97R
OSCEOLA        CLOUDY    78  69  73 S10G16    29.98R HX  80
$$

WIZ003>005-009-010-017-018-260200-
NORTH CENTRAL WISCONSIN

CITY           SKY/WX    TMP DP  RH WIND       PRES   REMARKS
MANITOWISH WTR CLOUDY    67  62  82 S8        30.02S
ARBOR VITAE    MOCLDY    69  61  74 S13       30.03R
WOODRUFF       MOCLDY    69  61  74 S13       30.03R
RHINELANDER    CLOUDY    68  61  78 S8        30.07R
EAGLE RIVER    CLOUDY    68  56  65 S7        30.04F
LAND O LAKES   CLOUDY    69  57  64 S8        30.04F
PHILLIPS       CLOUDY    69  64  85 S10       30.02S
TOMAHAWK         N/A     65  61  87 CALM      30.06R
MEDFORD        CLOUDY    67  63  89 CALM      30.06R THUNDER
MERRILL        TSTM      66  66 100 SW5       30.07R
$$

WIZ029-030-035-036-043>047-260200-
CENTRAL WISCONSIN

CITY           SKY/WX    TMP DP  RH WIND       PRES   REMARKS
WAUSAU         CLOUDY    72  62  71 S7        30.05R
MOSINEE        PTCLDY    70  63  78 S8        30.07R
MARSHFIELD     PTCLDY    71  62  73 S6        30.06R
STEVENS POINT  CLOUDY    73  60  63 S12       30.05S
WAUPACA        CLOUDY    75  62  62 SE6       30.06S
WAUTOMA        CLOUDY    74  64  71 S7        30.07R
WISC RAPIDS    CLOUDY    74  63  68 S8        30.06R
CAMP DOUGLAS   NOT AVBL
$$

WIZ011>013-019>022-031-037>040-048>050-260200-
NORTHEAST WISCONSIN

CITY           SKY/WX    TMP DP  RH WIND       PRES   REMARKS
ANTIGO         CLOUDY    64  63  97 SE7       30.06F
SHAWANO        CLOUDY    70  63  78 SE7       30.04S THUNDER
OCONTO         CLOUDY    71  62  72 S9        30.05F
STURGEON BAY     N/A     68  58  70 S16       30.07F
GREEN BAY      CLOUDY    71  63  75 S9        30.07F
MANITOWOC      NOT AVBL
APPLETON       NOT AVBL
CLINTONVILLE   MOCLDY   N/A N/A N/A S6        30.05S
OSHKOSH        CLOUDY    73  61  65 S8        30.08R
$$

WIZ032>034-041-042-053>061-260200-
SOUTHWEST WISCONSIN

CITY           SKY/WX    TMP DP  RH WIND       PRES   REMARKS
LA CROSSE      CLOUDY    80  69  69 S7        30.02R HX  83
SPARTA         PTCLDY    74  65  73 S7        30.03R
VIROQUA        CLOUDY    74  68  83 S8        30.05R
BOSCOBEL       CLEAR     77  67  71 S5        30.04S
PRAIRIE DU CHI CLEAR     78  66  67 SE5       30.03S
PLATTEVILLE    CLEAR     75  69  82 S9        30.08R
$$

WIZ056-057-062-063-064-067-068-260200-
SOUTH CENTRAL WISCONSIN

CITY           SKY/WX    TMP DP  RH WIND       PRES   REMARKS
REEDSBURG      CLEAR     73  66  78 S7        30.06R
BARABOO/DELLS  CLEAR     74  61  64 S9        30.07R
LONE ROCK      CLEAR     74  67  78 S7        30.06R
MINERAL POINT  CLEAR     75  68  78 S7        30.09R
MADISON        PTCLDY    75  63  66 S14       30.08
MIDDLETON      CLEAR     76  63  64 S12G18    30.09S
WATERTOWN      PTCLDY    73  64  73 S6        30.09S
MONROE         CLEAR     73  63  68 S10       30.11R
JANESVILLE     MOCLDY    75  63  64 S12       30.10S
$$

WIZ051-052-058>065-066-070>072-260200-
SOUTHEAST WISCONSIN

CITY           SKY/WX    TMP DP  RH WIND       PRES   REMARKS
MILWAUKEE      PTCLDY    73  59  61 S10       30.12S
WAUKESHA       CLEAR     70  57  64 SE9       30.13S
MILWAUKEE/TIMM CLEAR     73  54  49 S9        30.12S
RACINE         PTCLDY    73  61  65 S8        30.14S
KENOSHA        PTCLDY    73  56  54 S12       30.12S
FOND DU LAC    CLOUDY    74  59  59 S9        30.08S
SHEBOYGAN      CLOUDY    70  61  73 S13       30.10F
WEST BEND      PTCLDY    72  59  64 S7        30.11R
JUNEAU         MOCLDY    73  61  64 SE8       30.10S
$$

LSZ147-162-260200-
LAKE SUPERIOR

STATION/POSITION TIME  TEMP    WIND        PRES    WAVE
                       AIR SEA DIR/SP/G            HT/PER
                 (UTC) (F)     (DEG/KT/KT) (MB)    (FT/S)
W MID LAKE BUOY  2350   61 53  170/ 10/ 10 1012.8F   1
DEVILS ISLAND    0000   72     180/ 10/ 14 1012.3F
PORT WING        0030   74     200/  6/  8 1012.5S
SAXON HARBOR     0040   73     200/  7/ 14 1012.9F
$$

LMZ867-665-643>646-260200-
LAKE MICHIGAN

STATION/POSITION TIME  TEMP    WIND        PRES    WAVE
                       AIR SEA DIR/SP/G            HT/PER
                 (UTC) (F)     (DEG/KT/KT) (MB)    (FT/S)
CHAMBERS ISLAND  0040   71     150/  6/ 13 1017.6F
S GREEN BAY BUOY 0030   72 73  170/ 17/ 21 1017.9F
N MID LAKE BUOY  2350   68 67  190/ 14/ 16 1019.7F   2/ 4
NORTHPORT PIER   0040   69     150/ 10/ 15 1018.3F
KEWAUNEE LAKESHO 0030   69     170/ 14/ 17 1018.3F
SHEBOYGAN LAKESH 0000   69     170/ 16/ 18 1019.2F
PORT WASHINGTON  0040   71     170/  8/ 13 1020.3S
ATWATER BUOY     2309   70 68  170/ 12/ 16 1020.4
MILWAUKEE LAKESH 0040   71     150/ 11/ 13   N/A
S MID LAKE BUOY  2350   72 71  130/ 10/ 10 1020.3F   1/ 3
KENOSHA   LAKESH 0000   72     180/  8/  9 1019.6
$$

TC  - TEMPERATURE IN CELSIUS
VSB - VISIBILITY IN STATUTE MILES
WCI - WIND CHILL INDEX
HX  - HEAT INDEX





USA.gov is the U.S. government's official web portal to all federal, state and local government web resources and services.